Regional Weather Roundup
Issued by NWS

Home | Current Version | Previous Version | Graphics & Text | Print | Product List | Glossary On
Versions: 1 2 3 4 5 6 7 8 9 10 11 12 13 14 15 16 17 18 19 20 21 22 23 24 25 26 27 28 29 30 31 32 33 34 35 36 37 38 39 40 41 42 43 44 45 46 47 48 49 50
967
ASUS43 KTOP 241108
RWRKS

WEATHER ROUNDUP FOR KANSAS
NATIONAL WEATHER SERVICE GOODLAND KS
600 AM CDT SUN JUL 24 2016

NOTE:  "FAIR" INDICATES FEW OR NO CLOUDS BELOW 12,000 FEET WITH NO
SIGNIFICANT WEATHER AND/OR OBSTRUCTIONS TO VISIBILITY.

KSZ001>006-013>018-027>032-041>047-241200-
NORTHWEST KANSAS

CITY           SKY/WX    TMP DP  RH WIND       PRES   REMARKS
GOODLAND       CLOUDY    70  64  81 E9        30.03S
HAYS           CLOUDY    79  61  53 SE7       29.91S
HILL CITY      CLOUDY    77  69  76 N14G21    29.93R
RUSSELL        CLOUDY    78  67  68 W15       29.88S
$$

KSZ061>065-074>080-084>089-241200-
SOUTHWEST KANSAS

CITY           SKY/WX    TMP DP  RH WIND       PRES   REMARKS
DODGE CITY     MOCLDY    73  67  81 SW8       29.93F
ELKHART          N/A     75  60  59 E7          N/A
GARDEN CITY    PTCLDY    72  63  73 N7        29.93F
GREAT BEND     MOCLDY    79  63  57 S7        29.90R
LIBERAL        PTCLDY    73  61  64 S7        29.99R
PRATT          CLOUDY    71  67  87 SW9       29.92F
$$

KSZ066>073-081>083-090>101-241200-
SOUTHEAST KANSAS

CITY           SKY/WX    TMP DP  RH WIND       PRES   REMARKS
CHANUTE        CLEAR     77  72  84 S8        29.91R
COFFEYVILLE    CLEAR     76  73  91 S6        29.91R
HUTCHINSON     CLOUDY    78  67  68 S7        29.90S
MEDICINE LODGE   N/A     79  65  62 SE6       29.92S
NEWTON         MOCLDY    80  68  66 S10       29.93R
PARSONS        LGT RAIN  76  72  87 SW5       29.93R
WICHITA INTL   MOCLDY    76  68  76 S6        29.92R
WICHITA JABRA  PTCLDY    80  68  66 S9        29.92R
WICHITA MCCONL CLOUDY    77  68  72 SW7       29.93R
WINFIELD       CLEAR     77  70  79 S3        29.94R
$$

KSZ007>012-019>026-033>040-048>060-102>105-241200-
NORTHEAST KANSAS

CITY           SKY/WX    TMP DP  RH WIND       PRES   REMARKS
CONCORDIA      CLOUDY    75  67  76 SE3       29.89R
EMPORIA        CLOUDY    77  70  79 NW8       29.94R
LAWRENCE       PTCLDY    73  71  93 CALM      29.89R
MANHATTAN      LGT RAIN  79  71  76 SW9       29.89R
MARYSVILLE     CLOUDY    77  72  83 CALM      29.90R
OLATHE IND     PTCLDY    77  72  84 S7        29.91R
OLATHE EXE     PTCLDY    77  71  82 SW6       29.91R
SALINA         CLOUDY    85  67  54 S10       29.88R
TOPEKA BILLARD PTCLDY    79  71  76 S7        29.88R
TOPEKA FORBES  CLOUDY    77  71  82 S7        29.90R
$$




USA.gov is the U.S. government's official web portal to all federal, state and local government web resources and services.